[[{"header":{"parameterUnit":"m.s-1","parameterCategory":1,"la1":30.2991,"la2":30.254,"lo1":-89.0895,"lo2":-89.0444,"dy":0.0017,"dx":0.0017,"nx":28,"ny":28,"refTime":"2024-03-22T21:00:00:Z","depth":0,"parameterNumber":2,"parameterNumberName":"U-component_of_WINDS"},"data":[0,0,0,0,0,0,0,0,0,0,0,0,0,0,0,0,0,0,0,0,0,0,0,0,0,0,0,0,0,0,0,0,0,0,0,0,0,0,0,0,0,0,0,0,0,0,0,0,0,0,0,0,0,0,0,0,0,0,-0.6486,-0.6486,0,-0.6507,-0.6507,-0.6508,-0.6501,-0.6501,-0.65,-0.65,-0.6522,-0.6523,-0.6524,0,0,0,0,0,0,0,0,0,0,0,0,0,-0.644,-0.6441,-0.6486,-0.6486,-0.6486,-0.6507,-0.6507,-0.6508,-0.6501,-0.6501,-0.65,-0.65,-0.6522,-0.6523,-0.6524,0,0,0,0,0,0,0,0,0,0,0,0,0,-0.646,-0.6441,-0.6486,-0.6486,-0.6486,-0.6507,-0.6508,-0.6508,-0.6501,-0.6501,-0.65,-0.6499,-0.6522,-0.6523,-0.6525,-0.6547,0,0,-0.6529,-0.653,0,0,0,0,0,0,0,0,-0.6459,-0.6462,-0.6485,-0.6486,-0.6486,-0.6501,-0.6499,-0.6521,-0.6502,-0.6496,-0.65,-0.6499,-0.6516,-0.6518,-0.6523,-0.6548,-0.6549,-0.6529,-0.653,-0.6531,-0.6531,0,0,0,0,0,0,0,-0.6458,-0.6461,-0.6494,-0.6486,-0.6486,-0.6485,-0.6487,-0.6503,-0.6509,-0.6496,-0.6496,-0.6498,-0.6516,-0.6522,-0.6524,-0.655,-0.6529,-0.6531,-0.6532,-0.6532,-0.6595,-0.6595,0,0,0,0,0,0,-0.6456,-0.646,-0.6494,-0.6495,-0.6471,-0.6486,-0.6488,-0.6497,-0.6509,-0.651,-0.6499,-0.6498,-0.6519,-0.6522,-0.6524,-0.6552,-0.6531,-0.6532,-0.6533,-0.6594,-0.6595,-0.6596,0,0,0,0,0,0,-0.6455,-0.6459,-0.6493,-0.6477,-0.6481,-0.6487,-0.6497,-0.6498,-0.6504,-0.6511,-0.6512,-0.6504,-0.6519,-0.6522,-0.6542,-0.6553,-0.6533,-0.6534,-0.6593,-0.6594,-0.6595,-0.6608,0,0,0,0,0,0,-0.6454,-0.6459,-0.6468,-0.6478,-0.6482,-0.651,-0.6498,-0.6498,-0.6506,-0.6505,-0.6516,-0.6517,-0.6519,-0.6539,-0.6543,-0.6555,-0.6536,-0.6592,-0.6593,-0.6595,-0.6606,-0.6609,-0.6612,0,0,0,0,0,-0.6452,-0.6471,-0.6468,-0.6472,-0.6494,-0.651,-0.6513,-0.6514,-0.6507,-0.6516,-0.6521,-0.6517,-0.6551,-0.6541,-0.6546,-0.6558,-0.6591,-0.6593,-0.6595,-0.6605,-0.6609,-0.6612,0,0,0,0,0,0,-0.6462,-0.6472,-0.6469,-0.6491,-0.65,-0.6509,-0.6521,-0.6518,-0.6529,-0.6528,-0.6529,-0.6531,-0.6551,-0.6556,-0.6546,-0.658,-0.657,-0.6573,-0.6577,-0.658,-0.6582,-0.6581,-0.6537,0,0,0,0,0,-0.6467,-0.648,-0.6487,-0.6506,-0.6511,-0.6515,-0.6522,-0.6522,-0.6532,-0.6535,-0.6541,-0.6551,-0.6563,-0.6572,-0.6584,-0.6607,-0.6609,-0.6617,-0.6619,-0.6622,-0.6624,-0.6637,-0.664,-0.6601,-0.6601,-0.6601,0,0,-0.6477,-0.6484,-0.6492,-0.6508,-0.6515,-0.6529,-0.6518,-0.6533,-0.6543,-0.6538,-0.6556,-0.6561,-0.6571,-0.6593,-0.6602,-0.6597,-0.6635,-0.6624,-0.6625,-0.6627,-0.6639,-0.6642,-0.6646,-0.6602,-0.6602,-0.6602,0,0,-0.6502,-0.6509,-0.6525,-0.6532,-0.6542,-0.6545,-0.6548,-0.6558,-0.6561,-0.6579,-0.6576,-0.6587,-0.6609,-0.6617,-0.6623,-0.665,-0.6647,-0.6654,-0.6668,-0.668,-0.6683,-0.6686,-0.6696,-0.67,-0.6656,-0.6656,-0.6656,0,-0.6514,-0.6534,-0.6534,-0.6549,-0.6556,-0.6551,-0.6568,-0.6575,-0.6588,-0.6594,-0.6588,-0.6615,-0.6621,-0.6644,-0.6651,-0.6656,-0.6661,-0.6654,-0.6683,-0.6686,-0.6688,-0.6698,-0.6702,-0.6657,-0.6657,-0.6657,-0.6657,0,-0.6547,-0.6561,-0.6573,-0.6586,-0.6595,-0.6611,-0.6613,-0.6622,-0.6621,-0.6624,-0.6643,-0.665,-0.6664,-0.6669,-0.6668,-0.6692,-0.6688,-0.6682,-0.6672,-0.6693,-0.6702,-0.6706,-0.6658,-0.6658,-0.6658,-0.6658,0,0,-0.6581,-0.6593,-0.6598,-0.6604,-0.6614,-0.6625,-0.664,-0.6653,-0.666,-0.6669,-0.6682,-0.67,-0.6695,-0.6703,-0.6703,-0.6713,-0.6734,-0.6706,-0.6706,-0.6712,-0.6761,-0.6766,-0.677,-0.6732,-0.6733,-0.6733,-0.676,0,-0.6608,-0.6635,-0.6635,-0.666,-0.6673,-0.6668,-0.6681,-0.6689,-0.6692,-0.6703,-0.6706,-0.6719,-0.6711,-0.6715,-0.6726,-0.673,-0.6744,-0.6728,-0.6744,-0.6745,-0.6743,-0.6775,-0.678,-0.6805,-0.6764,-0.6764,-0.6765,0,-0.6643,-0.6653,-0.6679,-0.6687,-0.6693,-0.6705,-0.6716,-0.6727,-0.6736,-0.6737,-0.6745,-0.6743,-0.6758,-0.6747,-0.6768,-0.6757,-0.6763,-0.6766,-0.6767,-0.677,-0.6757,-0.6779,-0.6814,-0.6818,-0.677,-0.677,-0.677,0,-0.6666,-0.6686,-0.6704,-0.6709,-0.6719,-0.6727,-0.6732,-0.674,-0.6747,-0.6757,-0.6762,-0.6774,-0.678,-0.6789,-0.679,-0.6782,-0.6812,-0.68,-0.6814,-0.6814,-0.6821,-0.6821,-0.6858,-0.6824,-0.6824,-0.6824,-0.6824,0,-0.6696,-0.6712,-0.6714,-0.6725,-0.6743,-0.6743,-0.6761,-0.6765,-0.6771,-0.6783,-0.6779,-0.6791,-0.6791,-0.6803,-0.6803,-0.6821,-0.6824,-0.6826,-0.6826,-0.6827,-0.6826,-0.6832,-0.683,-0.6825,-0.6825,-0.6825,-0.6824,0,-0.6725,-0.6727,-0.6746,-0.6754,-0.6756,-0.6769,-0.6775,-0.6786,-0.6788,-0.6803,-0.6807,-0.681,-0.6823,-0.6825,-0.6841,-0.6841,-0.6862,-0.686,-0.686,-0.686,-0.6873,-0.6872,-0.6916,-0.6922,-0.6883,-0.6884,-0.6884,0,-0.6745,-0.6757,-0.6766,-0.6773,-0.6778,-0.679,-0.6798,-0.6798,-0.6806,-0.6816,-0.6825,-0.6838,-0.6848,-0.687,-0.6874,-0.6885,-0.6884,-0.6898,-0.6886,-0.6886,-0.6885,-0.6885,-0.6886,-0.6901,-0.6902,-0.6902,-0.6902,0,-0.678,-0.678,-0.6791,-0.6802,-0.6811,-0.682,-0.6828,-0.6835,-0.6835,-0.6845,-0.6858,-0.6866,-0.6881,-0.6894,-0.6905,-0.691,-0.6907,-0.6906,-0.691,-0.6911,-0.6911,-0.6912,-0.6867,-0.6905,-0.6905,-0.6905,-0.6905,-0.6905,-0.6805,-0.6816,-0.6824,-0.6836,-0.6842,-0.685,-0.686,-0.6863,-0.6874,-0.6887,-0.6886,-0.6901,-0.6908,-0.6923,-0.6928,-0.694,-0.6935,-0.6941,-0.6942,-0.6944,-0.6945,-0.6908,-0.6942,-0.6942,-0.6942,-0.6942,-0.6941,0,-0.6841,-0.6845,-0.6856,-0.6868,-0.6878,-0.6873,-0.6881,-0.689,-0.6903,-0.691,-0.692,-0.6935,-0.6947,-0.6952,-0.6964,-0.6972,-0.6971,-0.6975,-0.6975,-0.6976,-0.6949,-0.6944,-0.6976,-0.6976,-0.6976,-0.6976,-0.6976,-0.6976,-0.686,-0.6878,-0.6879,-0.69,-0.6904,-0.6919,-0.6924,-0.6931,-0.6937,-0.6954,-0.6964,-0.6967,-0.6973,-0.6985,-0.6996,-0.6996,-0.7001,-0.7007,-0.7007,-0.6981,-0.6978,-0.6975,-0.6971,-0.7008,-0.7008,-0.7034,-0.7034,-0.7034]},{"header":{"parameterUnit":"m.s-1","parameterCategory":1,"la1":30.2991,"la2":30.254,"lo1":-89.0895,"lo2":-89.0444,"dy":0.0017,"dx":0.0017,"nx":28,"ny":28,"refTime":"2024-03-22T21:00:00:Z","depth":0,"parameterNumber":3,"parameterNumberName":"V-component_of_WINDS"},"data":[0,0,0,0,0,0,0,0,0,0,0,0,0,0,0,0,0,0,0,0,0,0,0,0,0,0,0,0,0,0,0,0,0,0,0,0,0,0,0,0,0,0,0,0,0,0,0,0,0,0,0,0,0,0,0,0,0,0,-6.0773,-6.0775,0,-6.0968,-6.097,-6.0973,-6.0957,-6.0954,-6.0951,-6.0949,-6.1148,-6.1156,-6.1164,0,0,0,0,0,0,0,0,0,0,0,0,0,-6.0389,-6.0396,-6.0773,-6.0776,-6.0778,-6.0968,-6.097,-6.0973,-6.0958,-6.0954,-6.0951,-6.0947,-6.1146,-6.1155,-6.1165,0,0,0,0,0,0,0,0,0,0,0,0,0,-6.0567,-6.0398,-6.0773,-6.0793,-6.0797,-6.0967,-6.0971,-6.0974,-6.0959,-6.0954,-6.095,-6.0946,-6.1143,-6.1154,-6.1166,-6.1329,0,0,-6.1203,-6.1208,0,0,0,0,0,0,0,0,-6.0557,-6.0581,-6.0788,-6.0792,-6.0797,-6.0934,-6.0908,-6.1093,-6.096,-6.0897,-6.0949,-6.0943,-6.1081,-6.1097,-6.1144,-6.1338,-6.1346,-6.1204,-6.1211,-6.1217,-6.122,0,0,0,0,0,0,0,-6.0545,-6.0573,-6.085,-6.0791,-6.0796,-6.0793,-6.0814,-6.0943,-6.1011,-6.0902,-6.0902,-6.0925,-6.1082,-6.1132,-6.1148,-6.1349,-6.1204,-6.1214,-6.1222,-6.1227,-6.1688,-6.1693,0,0,0,0,0,0,-6.0527,-6.0562,-6.0844,-6.0856,-6.0664,-6.0804,-6.0826,-6.0894,-6.101,-6.1023,-6.0929,-6.0924,-6.1114,-6.1134,-6.1155,-6.1354,-6.1217,-6.1228,-6.1235,-6.1683,-6.169,-6.1695,0,0,0,0,0,0,-6.0519,-6.0553,-6.0836,-6.0709,-6.0745,-6.0815,-6.0891,-6.09,-6.095,-6.1029,-6.1042,-6.0967,-6.1111,-6.1138,-6.1286,-6.1361,-6.1233,-6.1244,-6.1678,-6.1685,-6.1692,-6.1753,0,0,0,0,0,0,-6.0508,-6.055,-6.0612,-6.0711,-6.0752,-6.0964,-6.0896,-6.0907,-6.0971,-6.0967,-6.1069,-6.1082,-6.111,-6.1268,-6.1298,-6.1375,-6.1254,-6.1671,-6.1681,-6.169,-6.1745,-6.1762,-6.1776,0,0,0,0,0,-6.0495,-6.0621,-6.0615,-6.0649,-6.0831,-6.0968,-6.0992,-6.1021,-6.0977,-6.1041,-6.1092,-6.1078,-6.1348,-6.1283,-6.1317,-6.1399,-6.1667,-6.1678,-6.1689,-6.1738,-6.1758,-6.1776,0,0,0,0,0,0,-6.0529,-6.0634,-6.0629,-6.0791,-6.0871,-6.0965,-6.1046,-6.1042,-6.1136,-6.1128,-6.116,-6.1184,-6.1333,-6.138,-6.1307,-6.1563,-6.1501,-6.152,-6.1527,-6.1547,-6.1563,-6.1549,-6.1264,0,0,0,0,0,-6.0556,-6.0658,-6.0744,-6.0879,-6.0919,-6.0976,-6.1037,-6.1053,-6.1136,-6.117,-6.1232,-6.1314,-6.1417,-6.1484,-6.1584,-6.1751,-6.1774,-6.1824,-6.184,-6.1852,-6.1869,-6.1962,-6.1986,-6.1732,-6.1732,-6.1732,0,0,-6.0611,-6.0681,-6.0744,-6.0888,-6.0951,-6.1057,-6.1004,-6.1118,-6.1197,-6.1187,-6.1331,-6.1379,-6.1473,-6.1632,-6.1705,-6.1676,-6.1944,-6.1867,-6.1876,-6.1886,-6.1976,-6.2,-6.2022,-6.174,-6.1738,-6.1737,0,0,-6.0767,-6.083,-6.095,-6.1015,-6.1112,-6.1149,-6.1178,-6.1274,-6.1305,-6.145,-6.1445,-6.154,-6.1717,-6.1784,-6.1842,-6.2024,-6.2016,-6.2055,-6.2139,-6.2229,-6.225,-6.2267,-6.2334,-6.2357,-6.2071,-6.2071,-6.2071,0,-6.0824,-6.0983,-6.1012,-6.1128,-6.1191,-6.1188,-6.131,-6.1371,-6.1496,-6.1541,-6.1506,-6.1729,-6.1792,-6.1967,-6.2012,-6.2058,-6.2093,-6.2045,-6.2244,-6.2263,-6.228,-6.2344,-6.2368,-6.2075,-6.2075,-6.2074,-6.2074,0,-6.105,-6.116,-6.1245,-6.1366,-6.144,-6.1558,-6.1605,-6.1676,-6.1685,-6.1726,-6.1874,-6.1949,-6.2065,-6.2107,-6.2117,-6.2285,-6.2264,-6.2237,-6.2176,-6.2308,-6.2368,-6.2393,-6.2082,-6.208,-6.2079,-6.2078,0,0,-6.1233,-6.1369,-6.14,-6.1455,-6.1563,-6.1649,-6.1767,-6.188,-6.1941,-6.2027,-6.2128,-6.2278,-6.2254,-6.2319,-6.2337,-6.2416,-6.2558,-6.238,-6.2383,-6.2412,-6.2749,-6.277,-6.2797,-6.2553,-6.2558,-6.2561,-6.2741,0,-6.1401,-6.1611,-6.164,-6.1826,-6.1929,-6.1927,-6.2031,-6.2108,-6.2149,-6.2243,-6.2288,-6.2395,-6.2355,-6.2394,-6.2473,-6.2524,-6.2627,-6.2512,-6.2648,-6.2653,-6.2626,-6.2829,-6.2851,-6.3017,-6.2765,-6.2769,-6.2772,0,-6.1625,-6.1718,-6.1914,-6.2008,-6.2053,-6.2145,-6.2252,-6.2341,-6.2429,-6.2454,-6.2527,-6.2535,-6.2659,-6.2592,-6.2763,-6.2684,-6.2741,-6.2775,-6.2782,-6.2797,-6.2721,-6.2851,-6.3071,-6.3096,-6.281,-6.2807,-6.2804,0,-6.1741,-6.1915,-6.2055,-6.2103,-6.2216,-6.2281,-6.2331,-6.2415,-6.2481,-6.2574,-6.2618,-6.2724,-6.2782,-6.2864,-6.2902,-6.2849,-6.3071,-6.3006,-6.3096,-6.3095,-6.3144,-6.314,-6.3378,-6.3178,-6.3178,-6.3177,-6.3177,0,-6.1926,-6.2047,-6.2109,-6.2196,-6.2331,-6.2364,-6.2497,-6.2545,-6.2619,-6.2716,-6.272,-6.281,-6.2853,-6.295,-6.298,-6.3118,-6.3144,-6.3168,-6.3175,-6.3168,-6.3166,-6.3208,-6.3197,-6.3184,-6.3183,-6.3181,-6.318,0,-6.2079,-6.2126,-6.2279,-6.2374,-6.24,-6.2496,-6.2578,-6.2662,-6.2702,-6.2824,-6.2855,-6.2919,-6.3033,-6.3078,-6.3218,-6.3238,-6.3398,-6.3394,-6.3368,-6.337,-6.3458,-6.345,-6.3731,-6.3771,-6.3544,-6.3546,-6.3548,0,-6.2195,-6.2288,-6.2393,-6.2458,-6.251,-6.2615,-6.2683,-6.2719,-6.2789,-6.2897,-6.2969,-6.3083,-6.3177,-6.336,-6.3419,-6.3526,-6.3527,-6.3618,-6.3543,-6.3534,-6.353,-6.3525,-6.3535,-6.3632,-6.3635,-6.3637,-6.3638,0,-6.2396,-6.2415,-6.2513,-6.262,-6.2701,-6.2786,-6.2869,-6.2922,-6.2971,-6.3051,-6.3168,-6.3241,-6.3384,-6.3498,-6.3609,-6.3661,-6.3659,-6.3661,-6.3688,-6.3683,-6.3665,-6.3678,-6.3408,-6.3655,-6.3653,-6.3652,-6.3651,-6.365,-6.2535,-6.2618,-6.2706,-6.2815,-6.2882,-6.296,-6.3044,-6.3095,-6.3194,-6.3314,-6.3329,-6.3455,-6.3542,-6.369,-6.3747,-6.3847,-6.3823,-6.3861,-6.3871,-6.388,-6.3887,-6.3648,-6.3867,-6.3866,-6.3866,-6.3866,-6.3865,0,-6.2738,-6.2794,-6.2895,-6.3011,-6.3098,-6.3088,-6.318,-6.3253,-6.3364,-6.3445,-6.3537,-6.3673,-6.3783,-6.3852,-6.3963,-6.403,-6.4032,-6.4058,-6.4054,-6.4067,-6.3901,-6.3868,-6.4055,-6.4055,-6.4055,-6.4055,-6.4055,-6.4055,-6.2854,-6.2994,-6.3023,-6.3197,-6.3253,-6.3377,-6.343,-6.3503,-6.3568,-6.3719,-6.3811,-6.3855,-6.3932,-6.4049,-6.415,-6.4168,-6.4209,-6.4238,-6.4253,-6.4098,-6.4078,-6.406,-6.4028,-6.4246,-6.4246,-6.4411,-6.4412,-6.4413]}]]